Location: Gwatt
(46.7204°N, 7.6223°E)
Time: 17:30:10
(UTC+00:00)

OBJECT-B - Pass Details

Date: 18 September 2020
Orbit: 421 x 433 km, 97.0° (Epoch: 09 October)

Event Time Altitude Azimuth Distance (km) Brightness Sun altitude
Exits shadow 20:34:37 15° 284° (WNW) 1,244 3.8 -29.3°
Drops below altitude 10° 20:36:00 10° 308° (NW) 1,518 4.5 -29.5°
Sets 20:38:36 0° 331° (NNW) 2,392 5.6 -29.8°
